ONEWEB-0335, 49201

Orbit data source: Space-Track

ONEWEB-0335, 49201 is a payload satellite owned by One Web (NAA) (UK) in LEO that was launched on Tue, 14 Sep 2021 UTC via a SOYUZ-2-1B launch vehicle from the Tyuratam Missile And Space Complex (TTMTR). Payload-class satellites include a variety of spacecraft equipped with specific instruments for various scientific and technological missions. These include communications satellites like Starlink; space stations such as the ISS; scientific satellites like the Hubble; Earth observation satellites from companies like Planet Labs, Umbra, and HawkEye 360; GPS; miniature CubeSats for education and research; and military/defense satellites.

Loading next visibility...
Identifier
49201, 2021-083R
Orbit
LEO
Country
Flag of UKUK
Related business
Manufacturer
One Web
Mission
Operational Commercial Communications
Bus & Motor
ARROW, Unknown motor
Mass
148 kg wet, ~140 kg dry
Launch date (UTC)
2021-09-14 (5 years ago)
Launch vehicle
SOYUZ-2-1B
Launch site
Tyuratam Missile And Space Complex (TTMTR)
Object type
Payload
Rocket body
Debris
Shape & HBR
Trap Box + 2 Pan, 6.7 m
Radar Cross Section
3.464 m², Large (>1 m²)

Expand to show TLE details & history
Last TLE update: 2 days ago

TLE from 2 days ago
0 ONEWEB-0335
1 49201U 21083R   26171.41072382  .00000258  00000-0  67038-3 0  9996
2 49201  87.8958 319.5902 0001936  92.7129 267.4221 13.13470124231344
Epoch: 2026-06-20T09:51Z
TLE epoch observation values (Epoch: 2026-06-20T09:51:26.538Z)
Latitude
-0.00007°
Longitude
-96.89612°
Altitude
1,212.724 km
Speed
7.248 km/s
True Right ascension
21h 18m 21s
True Declination
0° 00' 00"
Sunlit
Object was in full shadow at epoch
Visualization orbit readout
Latitude
Unknown
Longitude
Unknown
Altitude
Unknown
Speed
Unknown
Apparent Right ascension
Unknown
Apparent Declination
Unknown
Sunlit
N/A
Visualization observer readout
Local Sidereal Time
21:23:28
Azimuth
Unknown
Elevation
Unknown
Doppler factor
Unknown
Orbital elements
Apogee altitude
1,208.349 km
Perigee altitude
1,205.412 km
Semi-major axis
7,585.017 km
Eccentricity
0.00019
Inclination
87.8958°
RAAN
319.5902°
Arg. of periapsis
92.7129°
True anomaly
267.39994°
Mean anomaly
267.4221°
Eccentric anomaly
267.41102°
Mean motion
3.28555 °/min
Orbital period
109.57 mins
BSTAR
0.00067038
Loading maneuver chart data...
Computing Atmospheric mass density...
Loading historical data...
Loading historical data...
Loading historical data...
Loading historical data...
Loading historical data...
Loading historical data...
Loading historical data...

Documentation

Showing up to 5 results
|